Temperature
6 7 7 7 8 9 10 12 13 14 15 16 17 17 16 15 14 14 13 14 15 15 16 16 16 16 16 16 16 15 15 15 15 14 13 13 12 12 11 11 11 11 10 10
6 7 7 7 8 9 10 11 13 14 14 16 16 16 15 15 14 14 14 14 15 15 15 16 16 16 16 16 16 15 15 15 14 14 13 12 12 11 11 11 10 10 10 9
5 6 7 7 9 9 10 12 13 13 14 15 15 15 15 15 14 14 14 14 15 15 16 16 16 16 16 16 15 15 15 14 14 13 13 12 11 11 11 10 10 10 9 9
4 5 5 9 10 10 11 11 12 13 14 14 15 15 15 15 15 15 15 15 15 15 15 16 16 16 16 16 15 15 15 14 14 13 12 12 11 10 10 10 9 9 9 9
4 5 7 9 9 10 10 10 11 12 12 13 13 14 15 14 14 15 15 15 15 15 16 15 15 15 15 15 15 15 14 14 13 13 12 11 11 10 10 9 9 9 9 8
4 5 6 9 9 9 10 9 10 11 11 12 12 13 14 14 13 14 14 15 15 15 15 15 15 15 15 15 15 15 14 14 13 12 12 11 11 10 10 9 9 8 8 8
3 5 7 8 8 9 9 9 9 10 10 10 11 12 13 13 13 13 13 14 14 14 15 15 15 15 15 15 15 15 14 13 12 12 11 11 10 10 9 9 8 8 7 7
4 4 6 7 7 8 8 8 8 8 9 9 9 10 10 11 12 12 13 13 14 14 14 14 14 14 14 14 14 14 13 13 12 11 11 10 9 9 9 8 8 7 7 6
4 6 7 7 7 7 7 7 7 7 8 8 8 9 9 9 10 11 12 12 13 13 14 14 14 14 14 14 14 13 13 12 11 11 10 10 9 9 8 8 7 7 6 6
4 6 7 7 6 6 6 7 7 7 7 7 7 8 8 8 9 10 11 11 12 12 13 13 13 13 13 14 13 13 12 11 11 10 10 9 8 8 8 7 7 6 6 6
4 5 6 6 6 6 6 6 6 6 6 6 7 7 7 7 8 9 10 11 11 12 12 13 13 13 13 13 13 12 12 11 10 10 9 8 8 7 7 7 7 6 6 6
4 6 6 6 6 5 5 5 5 5 6 6 6 7 7 7 8 8 9 10 10 11 11 12 12 12 12 12 12 12 11 10 10 9 8 8 7 7 6 6 6 5 5 5
4 4 4 4 4 5 5 5 5 5 5 5 6 6 6 7 7 8 9 9 10 10 11 11 12 12 12 12 11 11 11 10 10 9 8 7 7 7 6 5 5 4 4 4
3 3 3 3 4 4 4 4 4 5 5 5 6 6 6 6 7 8 8 9 9 9 10 11 11 11 11 11 10 10 10 10 9 8 8 7 6 6 6 5 4 4 3 3
2 2 2 2 3 3 3 3 4 4 4 5 5 6 6 6 6 7 7 8 8 9 9 10 10 10 10 10 10 9 9 9 8 8 7 6 6 5 5 4 4 3 2 2
1 1 2 2 2 2 3 3 3 3 4 4 5 5 6 6 6 6 7 7 8 8 9 9 9 9 9 9 9 8 8 8 8 7 6 5 5 4 4 3 3 2 2 2
0 1 1 1 2 2 2 2 3 3 3 4 4 4 5 5 5 5 6 6 7 7 8 8 8 8 8 8 8 8 7 7 6 6 5 5 4 4 3 3 2 2 1 1
-0 -0 0 1 1 1 2 2 2 3 3 3 4 4 4 5 5 5 5 5 6 6 7 7 8 8 7 7 7 7 7 6 5 5 5 4 4 3 3 2 2 1 1 0
-1 -1 -0 0 1 1 1 2 2 2 3 3 3 3 4 4 4 5 4 5 5 5 6 6 6 6 6 6 6 6 6 5 5 4 4 3 3 2 2 1 1 1 0 -0
-2 -1 -1 0 1 1 1 2 2 2 2 2 3 3 3 3 4 4 4 4 5 5 6 5 5 5 5 5 5 5 5 4 4 3 3 2 2 2 1 1 0 0 -0 -1
-2 -2 -1 -0 0 1 1 2 2 2 2 2 2 3 3 3 3 4 4 3 4 4 4 4 4 4 4 4 4 4 4 3 3 3 2 2 1 1 0 0 -0 -1 -1 -1
-3 -2 -1 -1 -0 0 1 1 1 1 2 2 2 2 2 2 2 2 3 3 4 3 3 3 3 3 3 3 3 3 3 2 2 2 1 1 0 0 -0 -1 -1 -1 -2 -2
-3 -2 -2 -1 -1 -0 0 0 1 1 1 2 2 2 2 2 2 2 2 2 2 2 2 2 2 2 2 2 2 2 1 1 1 1 0 -0 -0 -1 -1 -1 -1 -2 -2 -3
-4 -3 -2 -2 -2 -1 -1 -1 -0 -0 0 0 0 1 1 1 0 1 2 2 2 1 1 1 1 1 1 1 1 1 0 0 0 -0 -0 -1 -1 -1 -1 -2 -2 -3 -3 -3
-4 -4 -3 -3 -3 -3 -3 -2 -2 -1 -1 -1 -1 -1 -1 -0 0 0 0 0 0 0 0 0 0 0 0 -0 -0 -0 -1 -1 -1 -1 -1 -1 -2 -2 -2 -3 -3 -3 -4 -4
-5 -5 -4 -4 -4 -4 -4 -4 -3 -3 -3 -3 -3 -3 -2 -2 -1 -1 -1 -1 -1 -1 -1 -1 -1 -1 -1 -1 -1 -2 -2 -2 -2 -2 -2 -2 -2 -3 -3 -3 -4 -4 -4 -4
-6 -6 -5 -5 -5 -5 -5 -5 -5 -5 -4 -4 -4 -4 -3 -3 -2 -2 -2 -2 -2 -2 -2 -2 -2 -2 -2 -2 -2 -3 -3 -3 -3 -3 -3 -3 -3 -4 -4 -4 -4 -5 -5 -5
Wind_Speed
10 9 9 12 16 19 22 22 20 20 20 16 10 8 6 4 4 5 7 8 9 9 9 10 10 10 11 11 12 13 13 14 14 13 13 12 12 12 12 11 11 11 11 10
9 9 10 13 17 20 24 25 26 22 21 15 11 7 6 6 6 7 7 8 8 9 10 10 10 10 10 11 12 13 13 13 12 12 12 12 12 11 11 11 10 10 10 10
7 7 7 11 17 20 21 25 26 26 22 12 13 12 11 10 9 9 9 8 9 10 10 10 10 11 11 11 12 12 12 12 12 13 12 12 11 11 11 11 10 10 10 9
5 5 10 8 8 14 19 21 22 20 16 14 16 16 15 13 12 11 10 9 9 9 9 9 9 10 10 11 12 12 12 12 12 13 13 12 12 12 11 10 9 9 9 9
4 7 9 9 7 11 15 15 13 16 16 15 14 13 16 14 12 12 11 10 10 10 9 9 10 11 11 11 11 12 12 13 13 13 13 13 13 12 10 9 9 8 8 8
6 7 8 5 4 6 10 12 8 10 12 12 11 14 16 12 11 12 11 8 8 8 8 9 10 11 12 12 13 13 13 13 13 13 13 13 12 11 9 9 8 8 7 7
11 9 8 5 5 3 9 6 5 7 9 10 13 15 13 11 11 11 10 8 7 8 9 10 11 13 13 13 13 12 12 12 12 12 12 12 11 10 10 9 9 8 7 6
8 9 9 2 0 4 4 7 7 7 8 10 13 13 12 12 10 9 8 7 7 8 9 9 12 14 13 13 12 12 13 13 13 12 11 10 12 10 10 10 9 8 7 6
7 9 6 4 7 8 8 9 9 9 10 11 12 12 11 11 10 9 8 7 7 8 9 9 12 14 14 12 13 14 14 13 13 12 11 11 11 11 10 9 8 7 7 6
10 13 13 12 12 11 10 11 12 12 12 12 12 12 12 11 10 8 7 6 6 8 10 10 11 12 12 13 14 15 15 14 13 12 11 10 9 9 9 8 8 7 7 6
14 16 14 12 12 13 13 14 15 14 13 13 12 13 12 11 10 8 6 6 7 9 10 11 11 11 12 14 15 15 14 13 12 11 11 10 8 6 7 6 7 8 7 7
14 14 13 15 15 15 16 15 15 15 15 14 13 13 11 10 9 7 6 6 7 8 9 10 12 12 13 14 15 16 14 13 11 10 10 9 9 7 7 6 8 7 7 6
18 17 17 19 20 19 17 17 16 15 16 15 13 11 10 9 8 6 6 7 8 9 10 11 12 12 13 14 14 15 15 14 11 11 10 10 9 9 8 7 9 8 8 8
18 18 20 20 19 18 17 16 15 14 14 13 12 10 8 7 6 7 7 8 8 8 10 11 12 12 12 13 14 14 14 13 12 10 10 10 9 9 8 9 7 5 6 7
17 17 18 19 19 18 16 14 13 13 13 11 9 7 7 7 7 7 6 6 8 9 10 11 12 12 12 13 13 14 12 11 10 10 9 9 9 8 8 8 7 6 5 5
15 15 17 18 19 18 15 14 14 14 12 10 8 7 6 5 5 5 6 8 10 10 10 11 12 12 12 13 13 11 10 13 12 10 9 9 8 8 8 7 7 6 6 6
16 17 16 16 17 17 15 14 13 12 10 9 7 5 4 4 5 6 7 7 8 9 10 11 11 11 12 12 12 10 10 11 13 10 9 9 8 8 7 7 6 6 5 6
17 19 18 18 17 16 15 14 12 10 9 7 5 5 6 7 8 8 8 8 9 8 8 9 11 11 11 11 11 10 10 10 9 9 8 8 8 7 7 7 7 6 5 5
16 17 17 18 17 15 14 13 11 9 7 6 7 7 6 6 7 8 9 10 11 10 8 9 13 12 11 11 11 10 10 10 9 8 8 10 8 7 6 6 6 6 5 5
14 14 15 15 14 13 12 11 9 8 6 6 7 7 7 7 8 10 10 8 6 6 10 11 11 10 11 11 11 9 10 10 10 9 8 7 7 7 6 6 6 5 5 4
13 12 11 10 9 9 8 8 7 6 6 7 7 8 8 8 9 9 9 7 6 9 11 12 9 9 9 10 11 9 9 9 9 8 8 7 7 6 6 6 5 4 4 4
11 9 8 6 5 5 4 4 5 5 6 6 6 7 9 9 9 8 7 6 9 11 9 8 8 10 12 12 8 9 9 9 8 7 7 7 6 6 6 5 4 4 3 3
9 7 5 3 2 2 2 3 4 5 6 7 8 9 9 9 8 9 8 7 9 11 9 8 11 15 15 9 8 9 8 8 7 7 6 6 6 5 5 5 4 4 3 3
7 4 2 1 3 4 4 4 5 6 6 6 6 7 8 9 7 6 7 12 13 13 9 12 16 15 13 8 8 8 7 7 6 6 6 5 5 4 4 4 3 3 3 3
5 4 3 4 4 4 5 7 8 9 9 8 9 8 6 6 7 8 10 11 14 13 11 13 15 14 9 8 8 7 6 6 6 6 5 5 4 4 3 3 3 3 3 3
5 4 4 5 4 5 5 6 7 7 7 8 8 8 8 8 10 10 10 11 13 13 10 9 9 9 7 7 7 7 6 6 6 5 5 4 4 3 3 3 3 2 2 2
5 5 5 6 6 6 6 6 7 7 7 8 9 8 9 9 9 10 11 10 10 9 8 8 7 7 7 7 7 6 5 4 4 4 4 3 3 2 2 3 2 2 2 3
Wind_Direction
267 268 234 236 231 224 220 221 226 230 235 235 233 235 231 215 188 187 187 189 189 186 184 181 180 179 180 179 178 177 179 183 187 186 185 185 186 187 185 185 185 185 186 189
269 262 249 245 233 226 228 227 232 238 240 238 241 240 234 225 207 206 205 201 198 193 188 187 186 181 178 178 176 176 179 181 179 178 178 180 180 179 177 178 179 180 185 186
266 262 261 246 225 220 224 228 229 234 237 238 236 231 230 229 227 223 220 213 206 202 197 193 191 183 180 177 172 175 177 176 175 175 175 175 172 172 175 177 177 179 183 185
265 248 233 243 226 225 230 233 234 240 245 239 239 243 243 239 240 242 236 225 217 210 205 198 190 183 175 169 171 172 173 174 173 172 172 170 170 173 175 175 176 178 180 181
241 244 254 262 247 225 225 236 240 240 245 247 252 258 249 242 244 244 241 235 225 215 206 193 184 176 167 168 170 172 175 175 173 171 169 169 171 173 171 169 170 170 173 176
238 241 240 250 269 256 223 238 249 247 250 253 240 241 246 250 245 249 250 240 225 210 200 192 182 170 168 172 174 180 179 174 170 169 169 169 169 167 164 163 162 159 162 170
237 243 256 283 303 217 201 236 282 257 256 252 241 246 267 268 251 245 246 240 220 203 198 192 178 170 174 176 182 178 169 164 164 166 166 164 160 160 157 154 153 154 154 158
223 232 244 331 213 211 274 309 306 287 268 262 261 267 274 271 264 251 242 234 216 201 197 186 178 174 177 181 174 162 159 158 159 159 156 155 154 154 155 154 154 154 154 151
232 246 286 278 263 279 297 300 302 304 296 284 278 275 276 275 267 255 243 230 214 199 189 185 183 180 178 172 160 157 155 155 154 152 153 155 155 154 155 158 158 160 160 160
259 259 270 278 277 282 291 297 299 300 299 294 284 282 277 274 268 258 246 228 209 193 188 187 182 181 173 161 158 156 155 153 152 151 150 150 151 155 158 162 162 162 164 164
262 271 283 273 272 284 291 294 298 300 296 291 286 283 277 273 264 254 243 224 205 197 189 183 175 170 163 160 157 155 153 151 151 150 148 146 144 148 156 161 168 166 169 167
258 268 275 282 288 291 291 290 291 294 295 292 284 280 276 270 259 247 233 217 204 196 184 175 168 164 162 161 159 154 151 153 153 151 148 145 140 123 92 115 122 127 138 151
262 272 276 280 286 286 285 286 286 286 286 288 285 278 271 265 254 237 221 209 200 189 177 168 163 161 162 162 160 158 155 154 153 153 152 150 149 147 138 112 107 117 128 134
268 273 275 276 279 284 286 287 287 285 283 281 279 276 264 255 243 227 215 204 190 175 167 163 159 160 160 159 157 154 152 151 151 152 152 152 153 152 151 150 147 135 128 134
267 266 269 276 280 280 280 281 282 282 283 282 278 261 246 236 229 222 203 181 167 162 160 158 156 156 156 155 152 150 149 150 147 145 145 146 145 145 146 148 147 145 142 143
273 271 269 270 271 273 274 271 272 276 278 276 272 259 244 228 214 194 177 169 164 164 161 158 155 153 152 149 145 144 145 143 143 143 143 143 145 147 148 150 151 156 161 160
271 270 269 269 270 271 269 267 268 270 270 268 262 248 215 181 172 172 168 167 162 156 155 153 149 146 147 147 143 141 140 142 138 138 143 147 149 151 152 153 157 161 164 166
264 266 265 265 267 269 269 268 267 263 262 259 237 216 198 184 178 168 158 146 136 132 138 141 141 141 142 144 140 139 141 144 145 142 142 145 146 148 151 154 160 160 160 165
270 267 266 264 262 260 262 264 264 260 251 226 210 206 198 185 167 156 151 149 147 144 143 138 137 137 138 139 136 136 137 138 136 136 138 142 142 146 151 157 161 163 165 171
279 274 270 265 260 254 253 255 255 247 228 204 192 183 175 165 155 150 148 146 146 143 143 141 137 135 135 136 131 133 135 137 138 139 141 147 148 151 155 159 163 166 173 180
292 283 275 266 261 255 248 241 229 220 199 182 177 172 161 151 148 145 143 134 121 127 135 134 133 134 134 134 127 130 132 135 138 142 145 147 149 151 156 160 164 170 177 183
300 290 278 264 255 253 239 213 197 184 168 162 154 147 143 142 140 131 116 125 133 134 132 131 130 132 135 130 126 128 130 133 135 138 142 146 150 154 158 162 167 173 180 188
304 291 277 261 237 193 140 148 152 151 150 150 150 150 147 143 142 137 126 125 133 129 124 126 131 132 127 120 122 123 127 130 132 136 140 144 149 154 159 163 169 175 184 192
318 321 336 51 109 110 108 106 106 110 113 116 120 127 133 131 115 101 114 127 128 120 116 121 124 123 116 112 115 118 121 124 127 130 133 136 141 147 155 161 168 177 187 198
340 8 49 81 98 105 108 105 99 98 97 99 99 97 99 107 115 117 119 123 122 115 114 117 115 110 105 107 109 112 115 120 124 127 131 137 142 148 154 162 171 181 193 204
8 32 51 63 79 96 106 107 105 105 106 105 99 94 93 98 106 109 110 111 110 108 108 108 107 103 102 105 106 107 110 116 116 119 127 132 139 146 155 166 181 193 204 216
28 46 61 66 68 77 87 95 102 105 108 111 108 102 101 103 104 106 107 107 105 101 100 99 98 99 100 102 103 103 105 108 112 117 124 130 139 151 165 181 197 207 218 227
Height
1391 1388 1389 1388 1387 1386 1384 1378 1377 1371 1369 1365 1367 1369 1371 1372 1375 1377 1378 1381 1384 1387 1390 1394 1397 1401 1405 1408 1412 1416 1420 1424 1427 1431 1435 1439 1442 1446 1449 1453 1456 1460 1462 1465
1389 1386 1384 1382 1379 1379 1378 1374 1370 1367 1366 1364 1368 1370 1371 1371 1373 1375 1376 1379 1381 1384 1387 1391 1394 1397 1401 1404 1408 1412 1416 1419 1423 1427 1430 1434 1438 1441 1445 1448 1452 1455 1458 1460
1387 1383 1382 1376 1368 1368 1367 1364 1363 1362 1360 1364 1367 1367 1368 1369 1371 1372 1374 1376 1378 1381 1384 1387 1390 1394 1397 1401 1404 1408 1412 1415 1419 1422 1426 1430 1433 1437 1440 1444 1447 1450 1453 1456
1390 1384 1382 1362 1358 1360 1360 1359 1359 1359 1360 1362 1362 1363 1364 1366 1367 1368 1370 1372 1375 1378 1380 1384 1387 1391 1394 1397 1401 1404 1408 1411 1415 1418 1422 1425 1429 1433 1436 1440 1443 1446 1448 1451
1389 1379 1367 1358 1357 1357 1357 1357 1358 1358 1359 1361 1362 1362 1359 1361 1364 1365 1367 1369 1371 1373 1376 1379 1382 1386 1389 1393 1396 1400 1403 1407 1410 1414 1417 1421 1425 1428 1432 1435 1438 1441 1444 1447
1387 1378 1365 1352 1353 1353 1356 1355 1356 1356 1356 1358 1359 1359 1352 1356 1359 1360 1362 1365 1366 1369 1371 1374 1377 1381 1384 1388 1391 1395 1399 1403 1406 1410 1414 1417 1421 1425 1428 1431 1434 1437 1440 1443
1383 1373 1357 1354 1354 1352 1356 1352 1352 1353 1353 1355 1355 1352 1353 1354 1354 1355 1357 1359 1361 1363 1365 1368 1372 1375 1379 1383 1387 1391 1395 1399 1403 1407 1410 1414 1418 1421 1424 1427 1431 1433 1436 1439
1376 1371 1361 1355 1354 1354 1352 1351 1350 1350 1350 1350 1349 1349 1350 1349 1348 1349 1350 1352 1354 1356 1359 1363 1366 1370 1374 1378 1382 1387 1390 1394 1399 1403 1407 1410 1414 1417 1421 1424 1427 1429 1432 1434
1368 1360 1354 1354 1353 1352 1351 1350 1349 1348 1347 1346 1345 1344 1344 1343 1343 1344 1345 1346 1348 1350 1353 1357 1361 1365 1369 1373 1378 1382 1386 1390 1394 1399 1403 1407 1410 1414 1417 1420 1423 1425 1428 1430
1362 1354 1352 1351 1350 1349 1349 1348 1346 1345 1343 1342 1340 1339 1338 1338 1338 1338 1338 1340 1342 1344 1347 1351 1355 1360 1364 1369 1373 1377 1381 1386 1390 1394 1399 1403 1407 1411 1414 1416 1419 1421 1424 1426
1357 1352 1350 1346 1347 1346 1345 1344 1341 1340 1339 1337 1335 1333 1333 1332 1332 1332 1332 1334 1336 1338 1341 1345 1350 1354 1359 1364 1368 1372 1377 1382 1386 1391 1395 1399 1403 1407 1410 1413 1416 1418 1420 1422
1349 1347 1347 1343 1343 1342 1341 1339 1338 1336 1333 1331 1331 1329 1327 1326 1326 1327 1327 1329 1331 1333 1336 1340 1345 1349 1354 1359 1364 1368 1372 1377 1382 1386 1391 1395 1399 1403 1407 1410 1413 1415 1417 1419
1346 1344 1343 1340 1338 1337 1336 1334 1332 1330 1328 1325 1324 1323 1322 1320 1321 1321 1322 1324 1326 1328 1331 1336 1340 1345 1350 1354 1359 1364 1368 1373 1378 1382 1387 1391 1395 1399 1402 1406 1409 1412 1414 1416
1341 1340 1336 1333 1332 1330 1329 1327 1326 1324 1322 1320 1318 1316 1316 1315 1315 1316 1318 1320 1322 1325 1328 1332 1336 1341 1346 1351 1356 1361 1366 1370 1374 1379 1384 1388 1392 1396 1399 1401 1404 1407 1410 1412
1333 1332 1330 1327 1325 1323 1322 1321 1319 1317 1315 1314 1313 1311 1311 1310 1311 1312 1314 1316 1319 1322 1325 1329 1333 1338 1343 1348 1353 1358 1362 1367 1372 1376 1381 1385 1389 1393 1396 1399 1401 1403 1406 1408
1325 1324 1323 1320 1317 1315 1315 1314 1313 1311 1310 1309 1308 1307 1307 1307 1308 1309 1310 1313 1316 1318 1322 1326 1330 1335 1340 1345 1350 1355 1360 1365 1369 1374 1378 1382 1386 1390 1393 1396 1398 1400 1403 1404
1319 1316 1314 1312 1310 1308 1307 1307 1307 1305 1304 1303 1303 1303 1303 1303 1304 1305 1308 1311 1315 1318 1321 1325 1329 1333 1338 1343 1348 1353 1358 1363 1368 1372 1376 1380 1383 1387 1390 1393 1395 1397 1399 1401
1310 1307 1306 1305 1303 1301 1300 1299 1299 1299 1299 1298 1299 1299 1299 1300 1301 1303 1306 1309 1312 1316 1320 1324 1328 1333 1338 1343 1347 1352 1356 1360 1365 1369 1373 1377 1381 1384 1387 1390 1392 1394 1396 1398
1299 1297 1296 1295 1294 1294 1293 1293 1293 1293 1293 1294 1294 1295 1296 1298 1300 1302 1305 1308 1310 1313 1318 1323 1327 1332 1337 1342 1347 1351 1355 1359 1363 1367 1371 1375 1378 1381 1384 1386 1389 1390 1392 1393
1290 1288 1287 1285 1285 1286 1286 1286 1287 1288 1288 1290 1291 1292 1294 1296 1299 1301 1304 1307 1310 1313 1317 1322 1327 1332 1336 1341 1345 1350 1353 1357 1361 1365 1368 1372 1375 1378 1381 1383 1385 1387 1389 1390
1282 1280 1279 1278 1278 1279 1280 1281 1282 1282 1284 1286 1287 1289 1291 1294 1297 1300 1303 1306 1310 1314 1318 1323 1327 1331 1336 1340 1344 1348 1352 1356 1359 1363 1366 1370 1373 1375 1378 1380 1382 1384 1385 1386
1276 1274 1273 1273 1273 1273 1274 1276 1278 1279 1280 1282 1285 1287 1289 1292 1296 1300 1303 1306 1310 1314 1318 1323 1327 1332 1336 1339 1343 1347 1351 1354 1358 1361 1364 1368 1370 1373 1375 1377 1379 1380 1381 1382
1272 1271 1269 1269 1269 1270 1271 1273 1275 1277 1278 1281 1283 1286 1288 1292 1295 1298 1301 1306 1311 1315 1319 1323 1328 1332 1335 1339 1342 1346 1350 1353 1356 1360 1363 1365 1368 1370 1372 1374 1375 1376 1377 1378
1269 1267 1266 1267 1267 1268 1269 1271 1274 1276 1279 1281 1283 1286 1289 1292 1295 1299 1302 1307 1311 1316 1320 1324 1328 1332 1336 1339 1342 1346 1349 1352 1355 1358 1361 1363 1365 1367 1369 1370 1371 1372 1373 1374
1268 1266 1266 1266 1266 1268 1269 1271 1273 1276 1279 1281 1284 1287 1290 1293 1296 1299 1304 1308 1313 1317 1321 1326 1329 1333 1336 1340 1343 1346 1349 1351 1354 1356 1359 1361 1362 1364 1366 1367 1368 1368 1369 1370
1269 1268 1267 1267 1268 1269 1271 1272 1274 1276 1279 1282 1285 1289 1292 1295 1299 1302 1306 1310 1315 1319 1322 1326 1330 1333 1337 1340 1342 1345 1348 1350 1352 1355 1356 1358 1359 1361 1362 1363 1364 1365 1365 1365
1272 1271 1270 1270 1271 1272 1273 1275 1277 1279 1282 1284 1286 1291 1294 1298 1301 1305 1309 1312 1316 1320 1324 1327 1330 1334 1337 1340 1342 1345 1347 1349 1351 1353 1354 1355 1356 1358 1359 1359 1360 1360 1361 1361